ROMMA est une association bénévole à but non lucratif. Votre soutien est indispensable : ADHERER à ROMMA ou FAIRE un DON

Pinsot - (38, Isère)

Vallée du Haut Bréda (750 m)   Longitude: 06° 06' E   Latitude: 45° 21' N Station partenaire n°101
 

Détail journalier du     <<     >>

Température Precipitation Humidité Pression Vent Dir Rafale Dir. rafale Ensol.
Heure (°C) (mm) (%) (hPa) (km/h) (km/h) (min)
01:00 3.209510262SSO16SSO0
02:00 3.209410266SSO18S0
03:00 2.309510261SSO15S0
04:00 1.7096102606S0
05:00 1.50961026010S0
06:00 1.609510262SSO13SSO0
07:00 0.909610261SSO16S0
08:00 0.80961026010SSO0
09:00 1.00.29510262SSO18SSO0
10:00 0.809510263SSO19SSO0
11:00 1.3095102708S0
12:00 3.3093102605SSO11
13:00 5.1094102602E60
14:00 4.708910261E15E60
15:00 3.709410252ENE15ENE44
16:00 3.809310250014
17:00 2.80941026010SSO0
18:00 2.109310251SSO13SSO0
19:00 1.10951025010SSO0
20:00 0.7095102508SSO0
21:00 0.2095102502SSO0
22:00 0.20951025010SSO0
23:00 0.109510251SSO13S0
minuit -0.109410251SSO13SSO0

Graphique du 25-12-2019

 

Serveur OMMA